sat.trackr.live / text

‹ back to catalog

HULIANWANG DIGUI-02

NORAD 62324 · 2024-240B

PAYLOAD ACTIVE UNKNOWN

§ Identity

Operator
Country
PRC
Launch date
2024-12-16
Launch site
WSC
Launch vehicle
Mass (kg)
RCS (m²)

External: N2YO · Heavens-Above · Gunter

§ Orbital elements

Epoch: 2026-05-25T04:33:51.819840Z

Period
108.73 min
Inclination
86.5030°
Eccentricity
0.0001521
Mean motion
13.24409074 rev/d
Perigee alt
1,166.8 km
Apogee alt
1,169.1 km
Semi-major
7,546.1 km
B*
5.5572e-5
RAAN
351.1525°
Arg perigee
81.3405°
Mean anomaly
278.7902°
Rev number
6,960

§ Raw data

HULIANWANG DIGUI-021 62324U 24240B   26145.19018310  .00000038  00000+0  55572-4 0  99982 62324  86.5030 351.1525 0001521  81.3405 278.7902 13.24409074 69603

JSON: /api/v1/satellites/62324 · /tle

For live sub-satellite position, see the globe view (requires WebGL).

§ Visibility from observer

Set your observer location to see the next 7 days of passes ≥ 10°. The values pass through the URL so the page stays shareable.

No JS? Fill the form by hand. The geolocation button needs JavaScript.